contact:dominique.lefevre@mio.osupytheas.fr, maurice.libes@osupytheas.fr, didier.mallarino@osupytheas.fr
Project:EMSO http://www.emso-fr.org/EMSO-France
Depth: 2436.0 m
Title:EMSO Ligure Ouest : Data MII capteur MICROCAT
DateTime_Computer,Latitude,Longitude,Temperature,Conductivity,Pressure,DateTime_Instrument
DateTime_Computer,Latitude,Longitude,degC,S m-1,dbar,DateTime_Instrument
2019-06-20T00:03:01Z,42.805,6.029,13.2958,4.59965,2469.876,2019-6-20T02:03:18Z
2019-06-20T00:06:04Z,42.805,6.029,13.2958,4.59962,2469.9,2019-6-20T02:06:21Z
2019-06-20T00:09:07Z,42.805,6.029,13.2960,4.59976,2469.876,2019-6-20T02:09:24Z
2019-06-20T00:12:10Z,42.805,6.029,13.2961,4.59981,2469.876,2019-6-20T02:12:27Z
2019-06-20T00:15:13Z,42.805,6.029,13.2961,4.59991,2469.923,2019-6-20T02:15:30Z
2019-06-20T00:18:16Z,42.805,6.029,13.2957,4.59966,2469.867,2019-6-20T02:18:33Z
2019-06-20T00:21:19Z,42.805,6.029,13.2957,4.59967,2469.867,2019-6-20T02:21:36Z
2019-06-20T00:24:22Z,42.805,6.029,13.2958,4.59962,2469.853,2019-6-20T02:24:39Z
2019-06-20T00:27:25Z,42.805,6.029,13.2957,4.59968,2469.853,2019-6-20T02:27:42Z
2019-06-20T00:30:28Z,42.805,6.029,13.2956,4.59964,2469.89,2019-6-20T02:30:44Z
2019-06-20T00:33:31Z,42.805,6.029,13.2955,4.59971,2469.876,2019-6-20T02:33:47Z
2019-06-20T00:36:34Z,42.805,6.029,13.2958,4.59963,2469.853,2019-6-20T02:36:50Z
2019-06-20T00:39:37Z,42.805,6.029,13.2961,4.59965,2469.853,2019-6-20T02:39:53Z
2019-06-20T00:42:40Z,42.805,6.029,13.2958,4.59961,2469.867,2019-6-20T02:42:56Z
2019-06-20T00:45:43Z,42.805,6.029,13.2958,4.59959,2469.853,2019-6-20T02:45:59Z
2019-06-20T00:48:46Z,42.805,6.029,13.2958,4.59958,2469.867,2019-6-20T02:49:02Z
2019-06-20T00:51:49Z,42.805,6.029,13.2956,4.59958,2469.853,2019-6-20T02:52:05Z
2019-06-20T00:54:52Z,42.805,6.029,13.2957,4.59956,2469.844,2019-6-20T02:55:08Z
2019-06-20T00:57:55Z,42.805,6.029,13.2954,4.59957,2469.83,2019-6-20T02:58:11Z
2019-06-20T01:00:57Z,42.805,6.029,13.2953,4.59957,2469.844,2019-6-20T03:01:14Z
2019-06-20T01:04:00Z,42.805,6.029,13.2956,4.59958,2469.844,2019-6-20T03:04:17Z
2019-06-20T01:07:03Z,42.805,6.029,13.2954,4.59958,2469.853,2019-6-20T03:07:20Z
2019-06-20T01:10:06Z,42.805,6.029,13.2954,4.59958,2469.83,2019-6-20T03:10:23Z
2019-06-20T01:13:09Z,42.805,6.029,13.2956,4.59961,2469.844,2019-6-20T03:13:26Z
2019-06-20T01:16:12Z,42.805,6.029,13.2953,4.59956,2469.83,2019-6-20T03:16:29Z
2019-06-20T01:19:15Z,42.805,6.029,13.2955,4.59957,2469.83,2019-6-20T03:19:32Z
2019-06-20T01:22:18Z,42.805,6.029,13.2957,4.59957,2469.83,2019-6-20T03:22:35Z
2019-06-20T01:25:21Z,42.805,6.029,13.2955,4.59957,2469.83,2019-6-20T03:25:38Z
2019-06-20T01:28:24Z,42.805,6.029,13.2955,4.59958,2469.844,2019-6-20T03:28:40Z
2019-06-20T01:31:27Z,42.805,6.029,13.2960,4.59958,2469.853,2019-6-20T03:31:43Z
2019-06-20T01:34:30Z,42.805,6.029,13.2952,4.59957,2469.844,2019-6-20T03:34:46Z
2019-06-20T01:37:33Z,42.805,6.029,13.2953,4.59958,2469.821,2019-6-20T03:37:49Z
2019-06-20T01:40:36Z,42.805,6.029,13.2958,4.59958,2469.844,2019-6-20T03:40:52Z
2019-06-20T01:43:39Z,42.805,6.029,13.2953,4.59958,2469.853,2019-6-20T03:43:55Z
2019-06-20T01:46:42Z,42.805,6.029,13.2956,4.59958,2469.806,2019-6-20T03:46:58Z
2019-06-20T01:49:45Z,42.805,6.029,13.2953,4.59958,2469.821,2019-6-20T03:50:01Z
2019-06-20T01:52:48Z,42.805,6.029,13.2953,4.59958,2469.821,2019-6-20T03:53:04Z
2019-06-20T01:55:51Z,42.805,6.029,13.2957,4.59959,2469.83,2019-6-20T03:56:07Z
2019-06-20T01:58:54Z,42.805,6.029,13.2958,4.59957,2469.806,2019-6-20T03:59:10Z
2019-06-20T02:01:56Z,42.805,6.029,13.2960,4.59958,2469.821,2019-6-20T04:02:13Z
2019-06-20T02:04:59Z,42.805,6.029,13.2959,4.59958,2469.806,2019-6-20T04:05:16Z
2019-06-20T02:08:02Z,42.805,6.029,13.2954,4.59957,2469.844,2019-6-20T04:08:19Z
2019-06-20T02:11:05Z,42.805,6.029,13.2954,4.59956,2469.806,2019-6-20T04:11:22Z
2019-06-20T02:14:08Z,42.805,6.029,13.2958,4.59957,2469.783,2019-6-20T04:14:25Z
2019-06-20T02:17:11Z,42.805,6.029,13.2956,4.59956,2469.806,2019-6-20T04:17:28Z
2019-06-20T02:20:14Z,42.805,6.029,13.2954,4.59956,2469.783,2019-6-20T04:20:31Z
2019-06-20T02:23:17Z,42.805,6.029,13.2952,4.59957,2469.844,2019-6-20T04:23:34Z
2019-06-20T02:26:20Z,42.805,6.029,13.2958,4.59956,2469.783,2019-6-20T04:26:37Z
2019-06-20T02:29:23Z,42.805,6.029,13.2953,4.59957,2469.821,2019-6-20T04:29:39Z
2019-06-20T02:32:26Z,42.805,6.029,13.2957,4.59957,2469.821,2019-6-20T04:32:42Z
2019-06-20T02:35:29Z,42.805,6.029,13.2958,4.59957,2469.821,2019-6-20T04:35:45Z
2019-06-20T02:38:32Z,42.805,6.029,13.2958,4.59956,2469.797,2019-6-20T04:38:48Z
2019-06-20T02:41:35Z,42.805,6.029,13.2958,4.59955,2469.806,2019-6-20T04:41:51Z
2019-06-20T02:44:38Z,42.805,6.029,13.2960,4.59956,2469.76,2019-6-20T04:44:54Z
2019-06-20T02:47:41Z,42.805,6.029,13.2957,4.59955,2469.783,2019-6-20T04:47:57Z
2019-06-20T02:50:44Z,42.805,6.029,13.2954,4.59957,2469.821,2019-6-20T04:51:00Z
2019-06-20T02:53:47Z,42.805,6.029,13.2958,4.59958,2469.844,2019-6-20T04:54:03Z
2019-06-20T02:56:50Z,42.805,6.029,13.2953,4.59956,2469.76,2019-6-20T04:57:06Z
2019-06-20T02:59:52Z,42.805,6.029,13.2958,4.59956,2469.783,2019-6-20T05:00:09Z
2019-06-20T03:02:55Z,42.805,6.029,13.2953,4.59956,2469.783,2019-6-20T05:03:12Z
2019-06-20T03:05:58Z,42.805,6.029,13.2953,4.59956,2469.783,2019-6-20T05:06:15Z
2019-06-20T03:09:01Z,42.805,6.029,13.2956,4.59955,2469.783,2019-6-20T05:09:18Z
2019-06-20T03:12:04Z,42.805,6.029,13.2956,4.59956,2469.806,2019-6-20T05:12:21Z
2019-06-20T03:15:07Z,42.805,6.029,13.2955,4.59957,2469.821,2019-6-20T05:15:24Z
2019-06-20T03:18:10Z,42.805,6.029,13.2958,4.59956,2469.773,2019-6-20T05:18:27Z
2019-06-20T03:21:13Z,42.805,6.029,13.2957,4.59958,2469.821,2019-6-20T05:21:30Z
2019-06-20T03:24:16Z,42.805,6.029,13.2957,4.59956,2469.797,2019-6-20T05:24:32Z
2019-06-20T03:27:19Z,42.805,6.029,13.2959,4.59956,2469.797,2019-6-20T05:27:35Z
2019-06-20T03:30:22Z,42.805,6.029,13.2954,4.59956,2469.783,2019-6-20T05:30:38Z
2019-06-20T03:33:25Z,42.805,6.029,13.2957,4.59957,2469.806,2019-6-20T05:33:41Z
2019-06-20T03:36:28Z,42.805,6.029,13.2960,4.59957,2469.76,2019-6-20T05:36:44Z
2019-06-20T03:39:31Z,42.805,6.029,13.2956,4.59956,2469.746,2019-6-20T05:39:47Z
2019-06-20T03:42:34Z,42.805,6.029,13.2953,4.59957,2469.797,2019-6-20T05:42:50Z
2019-06-20T03:45:37Z,42.805,6.029,13.2954,4.59957,2469.783,2019-6-20T05:45:53Z
2019-06-20T03:48:40Z,42.805,6.029,13.2959,4.59956,2469.806,2019-6-20T05:48:56Z
2019-06-20T03:51:43Z,42.805,6.029,13.2953,4.59956,2469.797,2019-6-20T05:51:59Z
2019-06-20T03:54:46Z,42.805,6.029,13.2955,4.59956,2469.773,2019-6-20T05:55:02Z
2019-06-20T03:57:49Z,42.805,6.029,13.2956,4.59956,2469.806,2019-6-20T05:58:05Z
2019-06-20T04:00:51Z,42.805,6.029,13.2952,4.59956,2469.783,2019-6-20T06:01:08Z
2019-06-20T04:03:54Z,42.805,6.029,13.2956,4.59956,2469.806,2019-6-20T06:04:11Z
2019-06-20T04:06:57Z,42.805,6.029,13.2955,4.59957,2469.76,2019-6-20T06:07:14Z
2019-06-20T04:10:00Z,42.805,6.029,13.2956,4.59958,2469.783,2019-6-20T06:10:17Z
2019-06-20T04:13:03Z,42.805,6.029,13.2958,4.59957,2469.773,2019-6-20T06:13:20Z
2019-06-20T04:16:06Z,42.805,6.029,13.2958,4.59957,2469.773,2019-6-20T06:16:23Z
2019-06-20T04:19:09Z,42.805,6.029,13.2957,4.59957,2469.75,2019-6-20T06:19:26Z
2019-06-20T04:22:12Z,42.805,6.029,13.2957,4.59958,2469.797,2019-6-20T06:22:29Z
2019-06-20T04:25:15Z,42.805,6.029,13.2956,4.59958,2469.76,2019-6-20T06:25:31Z
2019-06-20T04:28:18Z,42.805,6.029,13.2953,4.59959,2469.83,2019-6-20T06:28:34Z
2019-06-20T04:31:21Z,42.805,6.029,13.2954,4.59958,2469.76,2019-6-20T06:31:37Z
2019-06-20T04:34:24Z,42.805,6.029,13.2958,4.59957,2469.783,2019-6-20T06:34:40Z
2019-06-20T04:37:27Z,42.805,6.029,13.2957,4.59958,2469.773,2019-6-20T06:37:43Z
2019-06-20T04:40:30Z,42.805,6.029,13.2957,4.59956,2469.797,2019-6-20T06:40:46Z
2019-06-20T04:43:33Z,42.805,6.029,13.2956,4.59956,2469.76,2019-6-20T06:43:49Z
2019-06-20T04:46:36Z,42.805,6.029,13.2954,4.59958,2469.783,2019-6-20T06:46:52Z
2019-06-20T04:49:39Z,42.805,6.029,13.2954,4.59960,2469.806,2019-6-20T06:49:55Z
2019-06-20T04:52:42Z,42.805,6.029,13.2956,4.59958,2469.783,2019-6-20T06:52:58Z
2019-06-20T04:55:44Z,42.805,6.029,13.2956,4.59962,2469.76,2019-6-20T06:56:01Z
2019-06-20T04:58:47Z,42.805,6.029,13.2954,4.59958,2469.76,2019-6-20T06:59:04Z
2019-06-20T05:01:50Z,42.805,6.029,13.2956,4.59958,2469.76,2019-6-20T07:02:07Z
2019-06-20T05:04:53Z,42.805,6.029,13.2957,4.59961,2469.797,2019-6-20T07:05:10Z
2019-06-20T05:07:56Z,42.805,6.029,13.2957,4.59960,2469.773,2019-6-20T07:08:13Z
2019-06-20T05:10:59Z,42.805,6.029,13.2956,4.59960,2469.797,2019-6-20T07:11:16Z
2019-06-20T05:14:02Z,42.805,6.029,13.2957,4.59958,2469.797,2019-6-20T07:14:19Z
2019-06-20T05:17:05Z,42.805,6.029,13.2957,4.59958,2469.783,2019-6-20T07:17:22Z
2019-06-20T05:20:08Z,42.805,6.029,13.2958,4.59962,2469.806,2019-6-20T07:20:25Z
2019-06-20T05:23:11Z,42.805,6.029,13.2959,4.59965,2469.806,2019-6-20T07:23:27Z
2019-06-20T05:26:14Z,42.805,6.029,13.2957,4.59961,2469.821,2019-6-20T07:26:30Z
2019-06-20T05:29:17Z,42.805,6.029,13.2957,4.59958,2469.821,2019-6-20T07:29:33Z
2019-06-20T05:32:20Z,42.805,6.029,13.2957,4.59957,2469.806,2019-6-20T07:32:36Z
2019-06-20T05:35:23Z,42.805,6.029,13.2958,4.59962,2469.797,2019-6-20T07:35:39Z
2019-06-20T05:38:26Z,42.805,6.029,13.2956,4.59957,2469.806,2019-6-20T07:38:42Z
2019-06-20T05:41:29Z,42.805,6.029,13.2953,4.59963,2469.821,2019-6-20T07:41:45Z
2019-06-20T05:44:32Z,42.805,6.029,13.2958,4.59957,2469.821,2019-6-20T07:44:48Z
2019-06-20T05:47:35Z,42.805,6.029,13.2957,4.59966,2469.797,2019-6-20T07:47:51Z
2019-06-20T05:50:38Z,42.805,6.029,13.2953,4.59960,2469.806,2019-6-20T07:50:54Z
2019-06-20T05:53:41Z,42.805,6.029,13.2953,4.59964,2469.806,2019-6-20T07:53:57Z
2019-06-20T05:56:43Z,42.805,6.029,13.2955,4.59959,2469.806,2019-6-20T07:57:00Z
2019-06-20T05:59:46Z,42.805,6.029,13.2954,4.59964,2469.806,2019-6-20T08:00:03Z
2019-06-20T06:02:49Z,42.805,6.029,13.2956,4.59967,2469.844,2019-6-20T08:03:06Z
2019-06-20T06:05:52Z,42.805,6.029,13.2957,4.59962,2469.844,2019-6-20T08:06:09Z
2019-06-20T06:08:55Z,42.805,6.029,13.2953,4.59958,2469.806,2019-6-20T08:09:12Z
2019-06-20T06:11:58Z,42.805,6.029,13.2959,4.59966,2469.83,2019-6-20T08:12:15Z
2019-06-20T06:15:01Z,42.805,6.029,13.2957,4.59963,2469.83,2019-6-20T08:15:18Z
2019-06-20T06:18:04Z,42.805,6.029,13.2957,4.59978,2469.844,2019-6-20T08:18:21Z
2019-06-20T06:21:07Z,42.805,6.029,13.2955,4.59976,2469.844,2019-6-20T08:21:23Z
2019-06-20T06:24:10Z,42.805,6.029,13.2953,4.59964,2469.844,2019-6-20T08:24:26Z
2019-06-20T06:27:13Z,42.805,6.029,13.2955,4.59966,2469.83,2019-6-20T08:27:29Z
2019-06-20T06:30:16Z,42.805,6.029,13.2953,4.59966,2469.83,2019-6-20T08:30:32Z
2019-06-20T06:33:19Z,42.805,6.029,13.2954,4.59965,2469.806,2019-6-20T08:33:35Z
2019-06-20T06:36:22Z,42.805,6.029,13.2957,4.59967,2469.83,2019-6-20T08:36:38Z
2019-06-20T06:39:25Z,42.805,6.029,13.2958,4.59961,2469.83,2019-6-20T08:39:41Z
2019-06-20T06:42:28Z,42.805,6.029,13.2960,4.59971,2469.867,2019-6-20T08:42:44Z
2019-06-20T06:45:31Z,42.805,6.029,13.2958,4.59976,2469.853,2019-6-20T08:45:47Z
2019-06-20T06:48:34Z,42.805,6.029,13.2957,4.59973,2469.876,2019-6-20T08:48:50Z
2019-06-20T06:51:37Z,42.805,6.029,13.2957,4.59967,2469.876,2019-6-20T08:51:53Z
2019-06-20T06:54:39Z,42.805,6.029,13.2957,4.59976,2469.83,2019-6-20T08:54:56Z
2019-06-20T06:57:42Z,42.805,6.029,13.2954,4.59980,2469.844,2019-6-20T08:57:59Z
2019-06-20T07:00:45Z,42.805,6.029,13.2957,4.59968,2469.853,2019-6-20T09:01:02Z
2019-06-20T07:03:48Z,42.805,6.029,13.2956,4.59981,2469.876,2019-6-20T09:04:05Z
2019-06-20T07:06:51Z,42.805,6.029,13.2961,4.59973,2469.853,2019-6-20T09:07:08Z
2019-06-20T07:09:54Z,42.805,6.029,13.2957,4.59969,2469.867,2019-6-20T09:10:11Z
2019-06-20T07:12:57Z,42.805,6.029,13.2957,4.59988,2469.83,2019-6-20T09:13:14Z
2019-06-20T07:16:00Z,42.805,6.029,13.2957,4.59973,2469.853,2019-6-20T09:16:17Z
2019-06-20T07:19:03Z,42.805,6.029,13.2954,4.59969,2469.853,2019-6-20T09:19:20Z
2019-06-20T07:22:06Z,42.805,6.029,13.2956,4.59968,2469.89,2019-6-20T09:22:22Z
2019-06-20T07:25:09Z,42.805,6.029,13.2957,4.59975,2469.89,2019-6-20T09:25:25Z
2019-06-20T07:28:12Z,42.805,6.029,13.2957,4.59978,2469.853,2019-6-20T09:28:28Z
2019-06-20T07:31:15Z,42.805,6.029,13.2955,4.59977,2469.867,2019-6-20T09:31:31Z
2019-06-20T07:34:18Z,42.805,6.029,13.2957,4.59987,2469.867,2019-6-20T09:34:34Z
2019-06-20T07:37:21Z,42.805,6.029,13.2953,4.59984,2469.853,2019-6-20T09:37:37Z
2019-06-20T07:40:24Z,42.805,6.029,13.2957,4.59986,2469.844,2019-6-20T09:40:40Z
2019-06-20T07:43:27Z,42.805,6.029,13.2957,4.59983,2469.867,2019-6-20T09:43:43Z
2019-06-20T07:46:30Z,42.805,6.029,13.2955,4.59982,2469.853,2019-6-20T09:46:46Z
2019-06-20T07:49:33Z,42.805,6.029,13.2955,4.59979,2469.853,2019-6-20T09:49:49Z
2019-06-20T07:52:35Z,42.805,6.029,13.2956,4.59976,2469.876,2019-6-20T09:52:52Z
2019-06-20T07:55:38Z,42.805,6.029,13.2957,4.59971,2469.876,2019-6-20T09:55:55Z
2019-06-20T07:58:41Z,42.805,6.029,13.2958,4.59981,2469.876,2019-6-20T09:58:58Z
2019-06-20T08:01:44Z,42.805,6.029,13.2955,4.59980,2469.867,2019-6-20T10:02:01Z
2019-06-20T08:04:47Z,42.805,6.029,13.2955,4.59986,2469.876,2019-6-20T10:05:04Z
2019-06-20T08:07:50Z,42.805,6.029,13.2955,4.59991,2469.853,2019-6-20T10:08:07Z
2019-06-20T08:10:53Z,42.805,6.029,13.2957,4.60005,2469.876,2019-6-20T10:11:10Z
2019-06-20T08:13:56Z,42.805,6.029,13.2956,4.60022,2469.876,2019-6-20T10:14:13Z
2019-06-20T08:16:59Z,42.805,6.029,13.2957,4.60009,2469.867,2019-6-20T10:17:16Z
2019-06-20T08:20:02Z,42.805,6.029,13.2954,4.60000,2469.867,2019-6-20T10:20:19Z
2019-06-20T08:23:05Z,42.805,6.029,13.2954,4.60048,2469.867,2019-6-20T10:23:21Z
2019-06-20T08:26:08Z,42.805,6.029,13.2959,4.60034,2469.853,2019-6-20T10:26:24Z
2019-06-20T08:29:11Z,42.805,6.029,13.3005,4.59994,2469.853,2019-6-20T10:29:27Z
2019-06-20T08:32:14Z,42.805,6.029,13.3000,4.60037,2469.867,2019-6-20T10:32:30Z
2019-06-20T08:35:17Z,42.805,6.029,13.3017,4.60008,2469.89,2019-6-20T10:35:33Z
2019-06-20T08:38:20Z,42.805,6.029,13.3014,4.59999,2469.853,2019-6-20T10:38:36Z
2019-06-20T08:41:23Z,42.805,6.029,13.3020,4.60004,2469.89,2019-6-20T10:41:39Z
2019-06-20T08:44:26Z,42.805,6.029,13.3036,4.59994,2469.876,2019-6-20T10:44:42Z
2019-06-20T08:47:29Z,42.805,6.029,13.3029,4.59991,2469.89,2019-6-20T10:47:45Z
2019-06-20T08:50:32Z,42.805,6.029,13.3031,4.59991,2469.89,2019-6-20T10:50:48Z
2019-06-20T08:53:35Z,42.805,6.029,13.3031,4.60010,2469.89,2019-6-20T10:53:51Z
2019-06-20T08:56:37Z,42.805,6.029,13.3026,4.59999,2469.89,2019-6-20T10:56:54Z
2019-06-20T08:59:40Z,42.805,6.029,13.3026,4.60000,2469.89,2019-6-20T10:59:57Z
2019-06-20T09:02:43Z,42.805,6.029,13.3017,4.60003,2469.937,2019-6-20T11:03:00Z
2019-06-20T09:05:46Z,42.805,6.029,13.3050,4.59993,2469.853,2019-6-20T11:06:03Z
2019-06-20T09:08:49Z,42.805,6.029,13.3033,4.59995,2469.9,2019-6-20T11:09:06Z
2019-06-20T09:11:52Z,42.805,6.029,13.3009,4.60003,2469.89,2019-6-20T11:12:09Z
2019-06-20T09:14:55Z,42.805,6.029,13.3024,4.60024,2469.844,2019-6-20T11:15:12Z
2019-06-20T09:17:58Z,42.805,6.029,13.3021,4.59986,2469.89,2019-6-20T11:18:15Z
2019-06-20T09:21:01Z,42.805,6.029,13.3023,4.59985,2469.89,2019-6-20T11:21:18Z
2019-06-20T09:24:04Z,42.805,6.029,13.3035,4.60004,2469.876,2019-6-20T11:24:20Z
2019-06-20T09:27:07Z,42.805,6.029,13.3025,4.60001,2469.867,2019-6-20T11:27:23Z
2019-06-20T09:30:10Z,42.805,6.029,13.3017,4.60003,2469.844,2019-6-20T11:30:26Z
2019-06-20T09:33:13Z,42.805,6.029,13.3032,4.60020,2469.89,2019-6-20T11:33:29Z
2019-06-20T09:36:16Z,42.805,6.029,13.3013,4.60007,2469.83,2019-6-20T11:36:32Z
2019-06-20T09:39:19Z,42.805,6.029,13.3010,4.59991,2469.876,2019-6-20T11:39:35Z
2019-06-20T09:42:22Z,42.805,6.029,13.3024,4.59994,2469.867,2019-6-20T11:42:38Z
2019-06-20T09:45:25Z,42.805,6.029,13.3029,4.60031,2469.83,2019-6-20T11:45:41Z
2019-06-20T09:48:28Z,42.805,6.029,13.3014,4.59996,2469.844,2019-6-20T11:48:44Z
2019-06-20T09:51:31Z,42.805,6.029,13.3011,4.59991,2469.858,2019-6-20T11:51:47Z
2019-06-20T09:54:34Z,42.805,6.029,13.3031,4.59990,2469.83,2019-6-20T11:54:50Z
2019-06-20T09:57:37Z,42.805,6.029,13.3023,4.60016,2469.844,2019-6-20T11:57:53Z
2019-06-20T10:00:40Z,42.805,6.029,13.3012,4.59994,2469.89,2019-6-20T12:00:56Z
2019-06-20T10:03:42Z,42.805,6.029,13.3005,4.59996,2469.83,2019-6-20T12:03:59Z
2019-06-20T10:06:45Z,42.805,6.029,13.3009,4.59998,2469.844,2019-6-20T12:07:02Z
2019-06-20T10:09:48Z,42.805,6.029,13.3001,4.59986,2469.844,2019-6-20T12:10:05Z
2019-06-20T10:12:51Z,42.805,6.029,13.3000,4.59999,2469.858,2019-6-20T12:13:08Z
2019-06-20T10:15:54Z,42.805,6.029,13.2995,4.59999,2469.867,2019-6-20T12:16:11Z
2019-06-20T10:18:57Z,42.805,6.029,13.2991,4.59997,2469.844,2019-6-20T12:19:14Z
2019-06-20T10:22:00Z,42.805,6.029,13.3004,4.60018,2469.83,2019-6-20T12:22:17Z
2019-06-20T10:25:03Z,42.805,6.029,13.2993,4.60003,2469.844,2019-6-20T12:25:20Z
2019-06-20T10:28:06Z,42.805,6.029,13.3018,4.60018,2469.89,2019-6-20T12:28:23Z
2019-06-20T10:31:09Z,42.805,6.029,13.3004,4.60015,2469.83,2019-6-20T12:31:25Z
2019-06-20T10:34:12Z,42.805,6.029,13.3000,4.60014,2469.853,2019-6-20T12:34:28Z
2019-06-20T10:37:15Z,42.805,6.029,13.2991,4.60022,2469.821,2019-6-20T12:37:31Z
2019-06-20T10:40:18Z,42.805,6.029,13.2998,4.59984,2469.821,2019-6-20T12:40:34Z
2019-06-20T10:43:21Z,42.805,6.029,13.2997,4.59985,2469.83,2019-6-20T12:43:37Z
2019-06-20T10:46:24Z,42.805,6.029,13.3024,4.59999,2469.821,2019-6-20T12:46:40Z
2019-06-20T10:49:27Z,42.805,6.029,13.2993,4.59988,2469.821,2019-6-20T12:49:43Z
2019-06-20T10:52:30Z,42.805,6.029,13.2985,4.59991,2469.806,2019-6-20T12:52:46Z
2019-06-20T10:55:33Z,42.805,6.029,13.3008,4.59978,2469.83,2019-6-20T12:55:49Z
2019-06-20T10:58:36Z,42.805,6.029,13.2990,4.59985,2469.844,2019-6-20T12:58:52Z
2019-06-20T11:01:39Z,42.805,6.029,13.2982,4.59991,2469.844,2019-6-20T13:01:55Z
2019-06-20T11:04:41Z,42.805,6.029,13.3004,4.59986,2469.797,2019-6-20T13:04:58Z
2019-06-20T11:07:44Z,42.805,6.029,13.3005,4.60001,2469.83,2019-6-20T13:08:01Z
2019-06-20T11:10:47Z,42.805,6.029,13.2989,4.59984,2469.821,2019-6-20T13:11:04Z
2019-06-20T11:13:50Z,42.805,6.029,13.2996,4.59991,2469.821,2019-6-20T13:14:07Z
2019-06-20T11:16:53Z,42.805,6.029,13.2991,4.59983,2469.821,2019-6-20T13:17:10Z
2019-06-20T11:19:56Z,42.805,6.029,13.3002,4.60007,2469.806,2019-6-20T13:20:13Z
2019-06-20T11:22:59Z,42.805,6.029,13.2994,4.59994,2469.797,2019-6-20T13:23:16Z
2019-06-20T11:26:02Z,42.805,6.029,13.2995,4.59991,2469.797,2019-6-20T13:26:19Z
2019-06-20T11:29:05Z,42.805,6.029,13.2989,4.59979,2469.806,2019-6-20T13:29:22Z
2019-06-20T11:32:08Z,42.805,6.029,13.2983,4.59988,2469.821,2019-6-20T13:32:25Z
2019-06-20T11:35:11Z,42.805,6.029,13.2999,4.59991,2469.797,2019-6-20T13:35:27Z
2019-06-20T11:38:14Z,42.805,6.029,13.2991,4.60000,2469.806,2019-6-20T13:38:30Z
2019-06-20T11:41:17Z,42.805,6.029,13.2989,4.59996,2469.797,2019-6-20T13:41:33Z
2019-06-20T11:44:20Z,42.805,6.029,13.2994,4.59991,2469.76,2019-6-20T13:44:36Z
2019-06-20T11:47:23Z,42.805,6.029,13.2983,4.59992,2469.821,2019-6-20T13:47:39Z
2019-06-20T11:50:26Z,42.805,6.029,13.2993,4.59983,2469.806,2019-6-20T13:50:42Z
2019-06-20T11:53:29Z,42.805,6.029,13.3001,4.59995,2469.76,2019-6-20T13:53:45Z
2019-06-20T11:56:32Z,42.805,6.029,13.3011,4.59987,2469.76,2019-6-20T13:56:48Z
2019-06-20T11:59:35Z,42.805,6.029,13.2990,4.59990,2469.821,2019-6-20T13:59:51Z
2019-06-20T12:02:38Z,42.805,6.029,13.2986,4.59990,2469.806,2019-6-20T14:02:54Z
2019-06-20T12:05:41Z,42.805,6.029,13.2990,4.59991,2469.797,2019-6-20T14:05:57Z
2019-06-20T12:08:44Z,42.805,6.029,13.2982,4.59983,2469.806,2019-6-20T14:09:00Z
2019-06-20T12:11:46Z,42.805,6.029,13.2995,4.59986,2469.773,2019-6-20T14:12:03Z
2019-06-20T12:14:49Z,42.805,6.029,13.2989,4.59987,2469.797,2019-6-20T14:15:06Z
2019-06-20T12:17:52Z,42.805,6.029,13.2992,4.59981,2469.773,2019-6-20T14:18:09Z
2019-06-20T12:20:55Z,42.805,6.029,13.2989,4.59987,2469.76,2019-6-20T14:21:12Z
2019-06-20T12:23:58Z,42.805,6.029,13.3000,4.59981,2469.737,2019-6-20T14:24:15Z
2019-06-20T12:27:01Z,42.805,6.029,13.2982,4.59979,2469.773,2019-6-20T14:27:18Z
2019-06-20T12:30:04Z,42.805,6.029,13.2986,4.59987,2469.783,2019-6-20T14:30:21Z
2019-06-20T12:33:07Z,42.805,6.029,13.3014,4.59987,2469.773,2019-6-20T14:33:24Z
2019-06-20T12:36:10Z,42.805,6.029,13.2992,4.59985,2469.821,2019-6-20T14:36:27Z
2019-06-20T12:39:13Z,42.805,6.029,13.2983,4.59977,2469.76,2019-6-20T14:39:30Z
2019-06-20T12:42:16Z,42.805,6.029,13.2989,4.59998,2469.75,2019-6-20T14:42:32Z
2019-06-20T12:45:19Z,42.805,6.029,13.2981,4.60004,2469.713,2019-6-20T14:45:35Z
2019-06-20T12:48:22Z,42.805,6.029,13.3004,4.59996,2469.773,2019-6-20T14:48:38Z
2019-06-20T12:51:25Z,42.805,6.029,13.3005,4.59999,2469.773,2019-6-20T14:51:41Z
2019-06-20T12:54:28Z,42.805,6.029,13.2987,4.59991,2469.773,2019-6-20T14:54:44Z
2019-06-20T12:57:31Z,42.805,6.029,13.2986,4.59998,2469.75,2019-6-20T14:57:47Z
2019-06-20T13:00:34Z,42.805,6.029,13.3000,4.59986,2469.797,2019-6-20T15:00:50Z
2019-06-20T13:03:37Z,42.805,6.029,13.2983,4.59984,2469.76,2019-6-20T15:03:53Z
2019-06-20T13:06:40Z,42.805,6.029,13.3004,4.59990,2469.737,2019-6-20T15:06:56Z
2019-06-20T13:09:43Z,42.805,6.029,13.3009,4.59990,2469.737,2019-6-20T15:09:59Z
2019-06-20T13:12:46Z,42.805,6.029,13.2996,4.59978,2469.737,2019-6-20T15:13:02Z
2019-06-20T13:15:48Z,42.805,6.029,13.2990,4.59986,2469.713,2019-6-20T15:16:05Z
2019-06-20T13:18:51Z,42.805,6.029,13.2993,4.59994,2469.75,2019-6-20T15:19:08Z
2019-06-20T13:21:54Z,42.805,6.029,13.2990,4.59988,2469.75,2019-6-20T15:22:11Z
2019-06-20T13:24:57Z,42.805,6.029,13.2993,4.59991,2469.773,2019-6-20T15:25:14Z
2019-06-20T13:28:00Z,42.805,6.029,13.2999,4.59994,2469.737,2019-6-20T15:28:17Z
2019-06-20T13:31:03Z,42.805,6.029,13.3011,4.59997,2469.76,2019-6-20T15:31:20Z
2019-06-20T13:34:06Z,42.805,6.029,13.3000,4.59988,2469.75,2019-6-20T15:34:23Z
2019-06-20T13:37:09Z,42.805,6.029,13.2996,4.59977,2469.773,2019-6-20T15:37:26Z
2019-06-20T13:40:12Z,42.805,6.029,13.2998,4.59981,2469.75,2019-6-20T15:40:29Z
2019-06-20T13:43:15Z,42.805,6.029,13.3000,4.59988,2469.75,2019-6-20T15:43:32Z
2019-06-20T13:46:18Z,42.805,6.029,13.3007,4.59988,2469.737,2019-6-20T15:46:35Z
2019-06-20T13:49:21Z,42.805,6.029,13.2992,4.59991,2469.773,2019-6-20T15:49:37Z
2019-06-20T13:52:24Z,42.805,6.029,13.2985,4.59986,2469.76,2019-6-20T15:52:40Z
2019-06-20T13:55:27Z,42.805,6.029,13.2997,4.59986,2469.713,2019-6-20T15:55:43Z
2019-06-20T13:58:30Z,42.805,6.029,13.2989,4.59980,2469.75,2019-6-20T15:58:46Z
2019-06-20T14:01:33Z,42.805,6.029,13.2987,4.59985,2469.75,2019-6-20T16:01:49Z
2019-06-20T14:04:36Z,42.805,6.029,13.3000,4.59983,2469.713,2019-6-20T16:04:52Z
2019-06-20T14:07:39Z,42.805,6.029,13.2979,4.59979,2469.75,2019-6-20T16:07:55Z
2019-06-20T14:10:42Z,42.805,6.029,13.2998,4.59975,2469.727,2019-6-20T16:10:58Z
2019-06-20T14:13:45Z,42.805,6.029,13.2989,4.59978,2469.737,2019-6-20T16:14:01Z
2019-06-20T14:16:48Z,42.805,6.029,13.2991,4.59980,2469.737,2019-6-20T16:17:04Z
2019-06-20T14:19:51Z,42.805,6.029,13.2982,4.59983,2469.773,2019-6-20T16:20:07Z
2019-06-20T14:22:53Z,42.805,6.029,13.2986,4.59977,2469.737,2019-6-20T16:23:10Z
2019-06-20T14:25:56Z,42.805,6.029,13.2988,4.59976,2469.737,2019-6-20T16:26:13Z
2019-06-20T14:28:59Z,42.805,6.029,13.2982,4.59974,2469.727,2019-6-20T16:29:16Z
2019-06-20T14:32:02Z,42.805,6.029,13.2981,4.59978,2469.773,2019-6-20T16:32:19Z
2019-06-20T14:35:05Z,42.805,6.029,13.2982,4.59984,2469.75,2019-6-20T16:35:22Z
2019-06-20T14:38:08Z,42.805,6.029,13.2986,4.59984,2469.713,2019-6-20T16:38:25Z
2019-06-20T14:41:11Z,42.805,6.029,13.2981,4.59990,2469.704,2019-6-20T16:41:28Z
2019-06-20T14:44:14Z,42.805,6.029,13.2993,4.59983,2469.737,2019-6-20T16:44:31Z
2019-06-20T14:47:17Z,42.805,6.029,13.2993,4.59986,2469.737,2019-6-20T16:47:34Z
2019-06-20T14:50:20Z,42.805,6.029,13.2989,4.59986,2469.75,2019-6-20T16:50:37Z
2019-06-20T14:53:23Z,42.805,6.029,13.2985,4.59978,2469.713,2019-6-20T16:53:39Z
2019-06-20T14:56:26Z,42.805,6.029,13.2991,4.59970,2469.737,2019-6-20T16:56:42Z
2019-06-20T14:59:29Z,42.805,6.029,13.2996,4.59991,2469.75,2019-6-20T16:59:45Z
2019-06-20T15:02:32Z,42.805,6.029,13.2981,4.59976,2469.75,2019-6-20T17:02:48Z
2019-06-20T15:05:35Z,42.805,6.029,13.2980,4.59981,2469.727,2019-6-20T17:05:51Z
2019-06-20T15:08:38Z,42.805,6.029,13.2984,4.59981,2469.713,2019-6-20T17:08:54Z
2019-06-20T15:11:41Z,42.805,6.029,13.2986,4.59981,2469.727,2019-6-20T17:11:57Z